Regional Weather Roundup
Issued by NWS

Home | Current Version | Previous Version | Graphics & Text | Print | Product List | Glossary On
Versions: 1 2 3 4 5 6 7 8 9 10 11 12 13 14 15 16 17 18 19 20 21 22 23 24 25 26 27 28 29 30 31 32 33 34 35 36 37 38 39 40 41 42 43 44 45 46 47 48 49 50
000
ASUS43 KMKX 291559
RWRWI

WISCONSIN REGIONAL WEATHER ROUNDUP
NATIONAL WEATHER SERVICE MILWAUKEE/SULLIVAN WI
1000 AM CST THU JAN 29 2015

NOTE: "FAIR" INDICATES FEW OR NO CLOUDS BELOW 12,000 FEET WITH NO
SIGNIFICANT WEATHER AND/OR OBSTRUCTIONS TO VISIBILITY.

WIZ001-002-006>008-014>016-023>028-291700-
NORTHWEST WISCONSIN

CITY           SKY/WX    TMP DP  RH WIND       PRES   REMARKS
SUPERIOR ARPT  CLOUDY    29  23  79 NW17G23   30.13R WCI  17
ASHLAND        CLOUDY    29  20  69 N14       30.07R WCI  18
HAYWARD        CLOUDY    29  20  69 N12G20    30.06R WCI  19
SIREN          CLOUDY    30  22  70 NW13G25   30.12R WCI  20
CUMBERLAND     CLOUDY    30  23  74 NW20G25   30.07R WCI  18
RICE LAKE      CLOUDY    32  24  72 NW13G21   30.08R WCI  22
CHETEK         CLOUDY    31  25  77 NW9G24    30.07R WCI  23
LADYSMITH      CLOUDY    31  25  80 NW18      30.03R WCI  19
EAU CLAIRE     NOT AVBL
MENOMONIE      CLOUDY    33  26  76 NW14G20   30.08R WCI  23
NEW RICHMOND   CLOUDY    31  26  80 NW17      30.13R WCI  20
OSCEOLA        CLOUDY    32  24  73 NW18G24   30.16R WCI  20
$$

WIZ003>005-009-010-017-018-291700-
NORTH CENTRAL WISCONSIN

CITY           SKY/WX    TMP DP  RH WIND       PRES   REMARKS
MANITOWISH WTR CLOUDY    27  25  92 NW16      29.93R WCI  14
ARBOR VITAE    CLOUDY    29  26  86 N15G21    29.93R FOG     WCI  18
WOODRUFF       CLOUDY    29  26  86 N15G21    29.93R FOG     WCI  18
RHINELANDER    CLOUDY    27  22  81 NW12G32   29.92R WCI  17
EAGLE RIVER    MIX PCPN  27  22  82 NW14G20   29.90R WCI  16
LAND O LAKES   MIX PCPN  28  25  89 NW9G18    29.91R WCI  19
PHILLIPS       CLOUDY    28  23  81 NW10G22   29.96R WCI  19
TOMAHAWK       CLOUDY    28  23  81 NW7G17    29.94R WCI  21
MEDFORD        CLOUDY    28  24  84 NW16G25   29.95R WCI  16
MERRILL        CLOUDY    30  24  79 N13G21    29.93R WCI  20
$$

WIZ029-030-035-036-043>047-291700-
CENTRAL WISCONSIN

CITY           SKY/WX    TMP DP  RH WIND       PRES   REMARKS
WAUSAU         CLOUDY    30  24  78 NW14      29.93R WCI  19
MOSINEE        CLOUDY    30  27  86 NW15G25   29.94R WCI  19
MARSHFIELD     CLOUDY    31  23  72 N20G30    29.97R WCI  19
STEVENS POINT  CLOUDY    29  24  81 NW7G20    29.94R WCI  22
WAUPACA        CLOUDY    33  26  76 NW17G23   29.92R WCI  22
WAUTOMA        NOT AVBL
WISC RAPIDS    CLOUDY    31  25  78 NW16      29.98R WCI  20
CAMP DOUGLAS   NOT AVBL
$$

WIZ011>013-019>022-031-037>040-048>050-291700-
NORTHEAST WISCONSIN

CITY           SKY/WX    TMP DP  RH WIND       PRES   REMARKS
ANTIGO         CLOUDY    28  23  84 N20G28    29.88R WCI  14
SHAWANO        CLOUDY    33  26  76 NW13G26   29.90R WCI  24
OCONTO         CLOUDY    31  27  84 MISG      29.87R
STURGEON BAY   CLOUDY    30  25  80 NW15      29.88R WCI  19
GREEN BAY      CLOUDY    32  26  78 NW16G25   29.89R HAZE    WCI  21
MANITOWOC      NOT AVBL
APPLETON       CLOUDY    30  25  80 NW15G21   29.90R WCI  19
CLINTONVILLE   CLOUDY    32  27  80 NW17G24   29.90R WCI  21
OSHKOSH        CLOUDY    31  25  78 NW16G23   29.90R WCI  20
$$

WIZ032>034-041-042-053>061-291700-
SOUTHWEST WISCONSIN

CITY           SKY/WX    TMP DP  RH WIND       PRES   REMARKS
LA CROSSE      CLOUDY    36  26  67 N20G37    30.05R WCI  25
SPARTA         CLOUDY    33  27  77 NW16G22   30.02R WCI  22
VIROQUA        CLOUDY    32  31  96 NW22      29.98R WCI  19
BOSCOBEL       CLOUDY    35  28  75 NW6       30.03R WCI  30
PRAIRIE DU CHI CLOUDY    34  30  83 NW10G17   30.03R WCI  26
PLATTEVILLE    CLOUDY    33  29  86 NW22      29.98R WCI  21
$$

WIZ056-057-062-063-064-067-068-291700-
SOUTH CENTRAL WISCONSIN

CITY           SKY/WX    TMP DP  RH WIND       PRES   REMARKS
REEDSBURG      CLOUDY    31  28  86 NW13G22   29.96R WCI  22
BARABOO/DELLS  CLOUDY    31  27  84 NW9G22    29.95R FOG     WCI  23
LONE ROCK      NOT AVBL
MINERAL POINT  CLOUDY    34  30  86 NW18G25   29.95R WCI  23
MADISON        CLOUDY    32  26  78 NW17G23   29.94R WCI  21
MIDDLETON      CLOUDY    33  28  80 NW18G30   29.94R WCI  22
WATERTOWN      CLOUDY    31  27  85 NW13G22   29.90R WCI  21
MONROE         CLOUDY    32  28  86 NW15G30   29.92R WCI  22
JANESVILLE     CLOUDY    34  27  75 NW16      29.91R WCI  23
$$

WIZ051-052-058>065-066-070>072-291700-
SOUTHEAST WISCONSIN

CITY           SKY/WX    TMP DP  RH WIND       PRES   REMARKS
MILWAUKEE      LGT SNOW  32  26  78 NW14G23   29.87R WCI  22
WAUKESHA       CLOUDY    28  25  86 NW12G23   29.89R WCI  18
MILWAUKEE/TIMM CLOUDY    30  25  80 NW15G22   29.88R WCI  19
RACINE         LGT SNOW  32  26  78 NW16G24   29.88R WCI  21
BURLINGTON     CLOUDY    30  26  84 NW17G23   29.89R WCI  18
KENOSHA        LGT SNOW  32  28  85 NW16G24   29.87R FOG     WCI  21
FOND DU LAC    CLOUDY    32  25  75 NW17G25   29.90R WCI  21
SHEBOYGAN      CLOUDY    31  25  78 NW14G22   29.87R WCI  21
WEST BEND      CLOUDY    30  25  80 NW15      29.87R WCI  19
JUNEAU         CLOUDY    30  26  83 NW14      29.91R WCI  20
$$

LSZ147-162-291700-
LAKE SUPERIOR

STATION/POSITION TIME  TEMP    WIND        PRES    WAVE
                       AIR SEA DIR/SP/G            HT/PER
                 (UTC) (F)     (DEG/KT/KT) (MB)    (FT/S)
DEVILS ISLAND    1500   27     320/ 28/ 31 1018.0R
PORT WING        1540   29     320/ 21/ 25 1019.3R
SAXON HARBOR     1500   30     330/ 21/ 25 1016.6
$$

LMZ867-665-643>646-291700-
LAKE MICHIGAN

STATION/POSITION TIME  TEMP    WIND        PRES    WAVE
                       AIR SEA DIR/SP/G            HT/PER
                 (UTC) (F)     (DEG/KT/KT) (MB)    (FT/S)
NORTHPORT PIER   1500   30     310/ 14/ 19 1009.8R
SISTER BAY       1513   30     340/ 17/ 21   N/A
KEWAUNEE LAKESHO 1500   31     330/ 11/ 18 1009.4R
SHEBOYGAN LAKESH 1500   31     320/ 15/ 19 1011.3R
PORT WASHINGTON  1540   32     320/  9/ 16 1012.2R
MILWAUKEE LAKESH 1500   31     330/ 10/ 16   N/A
KENOSHA   LAKESH 1500   33     320/ 18/ 23 1009.8R
$$

TC  - TEMPERATURE IN CELSIUS
VSB - VISIBILITY IN STATUTE MILES
WCI - WIND CHILL INDEX
HX  - HEAT INDEX



USA.gov is the U.S. government's official web portal to all federal, state and local government web resources and services.